Date String (YYYY-MM-DD hh:mm:ss) UTC,Instrument flags,Ambient pressure (hPa),Sample flow (lpm),Bypass flow (lpm),Sample temperature (°C),Ambient temperature (°C),ASC tube jacket temperature (°C),LED temperature (°C),Box temperature (°C),Sample RH (%),Span deviation,Mass concentration (μg/m³),Mass concentration (μg/m³),Mass concentration (μg/m³)
DateTimeUTC,F1_M11,P_M11,Q1_M11,Q2_M11,T1_M11,T2_M11,T3_M11,T4_M11,T5_M11,U1_M11,ZSPAN_M11,X0_M11,X2_M11,X1_M11
2022-05-05 02:00:00,,0825.4,5.02,0.00,26.0,25.1,00.0,34.8,27.8,23.2,0000.0,0004.43,0002.85,0002.30
2022-05-05 02:01:00,,0825.4,5.00,0.00,25.9,25.1,00.0,34.8,27.8,23.1,0000.0,0004.54,0002.92,0002.36
2022-05-05 02:02:00,,0825.4,4.99,0.00,26.0,25.2,00.0,34.8,27.8,23.1,0000.0,0004.57,0002.97,0002.41
2022-05-05 02:03:00,,0825.4,5.01,0.00,26.0,25.2,00.0,34.8,27.9,23.0,0000.0,0004.48,0003.00,0002.48
2022-05-05 02:04:00,,0825.4,4.99,0.00,26.0,25.2,00.0,34.8,27.9,23.0,0000.0,0004.69,0003.05,0002.53
2022-05-05 02:05:00,,0825.5,5.01,0.00,26.0,25.2,00.0,34.8,27.9,22.9,0000.0,0005.48,0003.13,0002.60
2022-05-05 02:06:00,,0825.5,4.99,0.00,26.0,25.1,00.0,34.8,27.9,22.9,0000.0,0005.48,0003.15,0002.66
2022-05-05 02:07:00,,0825.5,5.02,0.00,26.0,25.1,00.0,34.8,27.8,22.9,0000.0,0005.38,0003.14,0002.69
2022-05-05 02:08:00,,0825.6,4.99,0.00,26.0,25.2,00.0,34.8,27.8,22.8,0000.0,0005.32,0003.15,0002.72
2022-05-05 02:09:00,,0825.6,5.00,0.00,26.0,25.1,00.0,34.8,27.8,22.9,0000.0,0005.20,0003.13,0002.74
2022-05-05 02:10:00,,0825.5,5.00,0.00,26.0,25.1,00.0,34.9,27.8,22.9,0000.0,0005.32,0003.17,0002.77
2022-05-05 02:11:00,,0825.5,5.00,0.00,26.0,25.2,00.0,34.9,27.8,22.8,0000.0,0005.37,0003.19,0002.79
2022-05-05 02:12:00,,0825.6,4.99,0.00,26.0,25.1,00.0,34.9,27.9,22.8,0000.0,0005.46,0003.21,0002.78
2022-05-05 02:13:00,,0825.5,5.00,0.00,26.0,25.1,00.0,34.9,27.8,22.7,0000.0,0005.45,0003.21,0002.78
2022-05-05 02:14:00,,0825.6,5.00,0.00,26.0,25.1,00.0,34.9,27.8,22.7,0000.0,0005.34,0003.18,0002.75
2022-05-05 02:15:00,,0825.6,5.00,0.00,26.0,25.1,00.0,34.9,27.8,22.7,0000.0,0005.13,0003.16,0002.74
2022-05-05 02:16:00,,0825.6,5.00,0.00,26.0,25.1,00.0,34.9,27.8,22.8,0000.0,0004.50,0003.14,0002.72
2022-05-05 02:17:00,,0825.6,5.00,0.00,26.0,25.1,00.0,34.9,27.8,22.8,0000.0,0004.74,0003.14,0002.70
2022-05-05 02:18:00,,0825.6,5.00,0.00,26.0,25.1,00.0,34.9,27.9,22.8,0000.0,0004.79,0003.15,0002.69
2022-05-05 02:19:00,,0825.6,4.99,0.00,26.0,25.1,00.0,34.9,27.9,22.8,0000.0,0004.89,0003.16,0002.68
2022-05-05 02:20:00,,0825.5,5.01,0.00,26.0,25.2,00.0,34.9,27.9,22.8,0000.0,0005.02,0003.18,0002.68
2022-05-05 02:21:00,,0825.6,4.99,0.00,26.0,25.2,00.0,34.9,27.9,22.7,0000.0,0005.16,0003.19,0002.68
2022-05-05 02:22:00,,0825.6,5.01,0.00,26.0,25.2,00.0,34.9,27.9,22.7,0000.0,0005.29,0003.21,0002.70
2022-05-05 02:23:00,,0825.6,4.99,0.00,26.0,25.2,00.0,34.9,27.9,22.6,0000.0,0005.25,0003.21,0002.71
2022-05-05 02:24:00,,0825.6,5.01,0.00,26.0,25.2,00.0,34.9,27.9,22.5,0000.0,0005.20,0003.20,0002.70
2022-05-05 02:25:00,,0825.6,4.99,0.00,26.0,25.2,00.0,34.9,27.9,22.5,0000.0,0005.24,0003.21,0002.72
2022-05-05 02:26:00,,0825.6,5.00,0.00,26.0,25.2,00.0,34.9,27.9,22.4,0000.0,0005.32,0003.22,0002.73
2022-05-05 02:27:00,,0825.6,4.99,0.00,26.0,25.2,00.0,34.9,27.9,22.4,0000.0,0005.06,0003.23,0002.74
2022-05-05 02:28:00,,0825.6,5.00,0.00,26.1,25.2,00.0,34.9,27.9,22.3,0000.0,0004.76,0003.22,0002.75
2022-05-05 02:29:00,,0825.7,5.01,0.00,26.1,25.2,00.0,34.9,27.9,22.3,0000.0,0004.81,0003.24,0002.75
2022-05-05 02:30:00,,0825.7,5.00,0.00,26.1,25.2,00.0,34.9,27.9,22.3,0000.0,0004.84,0003.25,0002.78
2022-05-05 02:31:00,,0825.7,5.00,0.00,26.1,25.2,00.0,34.9,27.9,22.4,0000.0,0004.81,0003.26,0002.82
2022-05-05 02:32:00,,0825.7,4.99,0.00,26.1,25.2,00.0,34.9,27.9,22.5,0000.0,0004.64,0003.26,0002.85
2022-05-05 02:33:00,,0825.7,5.00,0.00,26.1,25.2,00.0,34.9,27.9,22.5,0000.0,0005.11,0003.28,0002.87
2022-05-05 02:34:00,,0825.7,5.00,0.00,26.1,25.2,00.0,34.9,27.9,22.5,0000.0,0006.05,0003.30,0002.89
2022-05-05 02:35:00,,0825.7,4.99,0.00,26.1,25.2,00.0,34.9,27.9,22.5,0000.0,0006.73,0003.35,0002.93
2022-05-05 02:36:00,,0825.7,5.01,0.00,26.1,25.2,00.0,34.9,27.9,22.6,0000.0,0006.74,0003.36,0002.94
2022-05-05 02:37:00,,0825.8,5.01,0.00,26.1,25.2,00.0,34.9,27.9,22.6,0000.0,0006.81,0003.40,0002.99
2022-05-05 02:38:00,,0825.8,4.99,0.00,26.1,25.2,00.0,34.9,27.9,22.7,0000.0,0006.69,0003.42,0003.06
2022-05-05 02:39:00,,0825.8,5.01,0.00,26.1,25.2,00.0,34.9,27.9,22.7,0000.0,0006.85,0003.48,0003.12
2022-05-05 02:40:00,,0825.9,5.00,0.00,26.1,25.2,00.0,34.9,27.9,22.7,0000.0,0006.87,0003.49,0003.15
2022-05-05 02:41:00,,0825.9,5.01,0.00,26.1,25.2,00.0,34.9,27.9,22.8,0000.0,0006.92,0003.51,0003.18
2022-05-05 02:42:00,,0825.9,4.99,0.00,26.1,25.2,00.0,35.0,27.9,22.8,0000.0,0007.00,0003.55,0003.21
2022-05-05 02:43:00,,0825.9,5.00,0.00,26.1,25.2,00.0,34.9,27.9,22.8,0000.0,0007.11,0003.58,0003.22
2022-05-05 02:44:00,,0825.9,5.01,0.00,26.1,25.2,00.0,34.9,27.9,22.9,0000.0,0006.83,0003.60,0003.24
2022-05-05 02:45:00,,0825.8,4.99,0.00,26.0,25.2,00.0,34.9,27.9,23.6,0000.0,0006.14,0003.62,0003.26
2022-05-05 02:46:00,,0825.8,5.01,0.00,26.1,25.2,00.0,34.9,27.9,24.4,0000.0,0005.34,0003.62,0003.28
2022-05-05 02:47:00,,0825.9,5.00,0.00,26.0,25.2,00.0,34.9,27.9,23.4,0000.0,0005.47,0003.66,0003.31
2022-05-05 02:48:00,,0825.9,5.00,0.00,26.0,25.2,00.0,34.9,27.9,23.1,0000.0,0005.44,0003.66,0003.33
2022-05-05 02:49:00,,0825.9,5.00,0.00,26.0,25.2,00.0,34.9,27.9,23.0,0000.0,0005.57,0003.69,0003.33
2022-05-05 02:50:00,,0826.0,5.00,0.00,26.1,25.2,00.0,34.9,27.9,22.9,0000.0,0005.64,0003.71,0003.34
2022-05-05 02:51:00,,0826.0,5.01,0.00,26.1,25.2,00.0,35.0,27.9,22.9,0000.0,0005.58,0003.72,0003.34
2022-05-05 02:52:00,,0826.0,4.99,0.00,26.1,25.2,00.0,35.0,27.9,22.9,0000.0,0005.60,0003.74,0003.35
2022-05-05 02:53:00,,0826.0,5.01,0.00,26.1,25.2,00.0,35.0,27.9,22.9,0000.0,0005.69,0003.76,0003.36
2022-05-05 02:54:00,,0826.1,4.99,0.00,26.1,25.2,00.0,34.9,27.9,23.1,0000.0,0007.08,0003.79,0003.39
2022-05-05 02:55:00,,0826.0,5.00,0.00,26.1,25.2,00.0,34.9,27.9,23.3,0000.0,0007.53,0003.83,0003.41
2022-05-05 02:56:00,,0826.0,5.00,0.00,26.1,25.2,00.0,34.9,27.9,23.3,0000.0,0007.84,0003.90,0003.44
2022-05-05 02:57:00,,0826.1,4.99,0.00,26.1,25.2,00.0,34.9,27.9,23.3,0000.0,0008.17,0003.97,0003.45
2022-05-05 02:58:00,,0826.0,5.01,0.00,26.1,25.2,00.0,34.9,27.9,23.3,0000.0,0008.96,0004.01,0003.47
2022-05-05 02:59:00,,0826.1,4.99,0.00,26.1,25.2,00.0,35.0,27.9,23.3,0000.0,0009.07,0004.05,0003.48
